Location: ??????
(41.3794°N, 22.5014°E)
Time: 17:38:53
(UTC+00:00)

Daily predictions for brighter satellites

Satellite Brightness Start Highest point End
(mag) Time Altitude Azimuth Time Altitude Azimuth Time Altitude Azimuth
Cosmos 1867 4.0 15:21:57 10° SW 15:27:20 66° NW 15:32:48 10° NNE
SL-16 R/B 2.3 15:22:54 10° SSW 15:28:30 69° ESE 15:34:09 10° NNE
COSMO-SKYMED 1 4.2 15:29:46 10° NE 15:32:19 15° E 15:34:52 10° SE
Cosmos 1606 2.7 15:28:35 10° S 15:32:28 86° E 15:36:22 10° N
Cosmos 44 3.6 15:27:51 10° NNW 15:33:07 57° NE 15:38:26 10° SE
Cosmos 2181 Rocket 4.3 15:27:52 10° SSE 15:33:59 49° E 15:40:03 10° NNE
BREEZE-M DEB (TANK) 4.3 15:31:32 10° SSW 15:35:10 18° SSE 15:37:31 10° ESE
Envisat 3.1 15:32:47 10° SSE 15:37:51 89° WSW 15:42:58 10° NNW
YAOGAN 6 2.5 15:36:45 10° SSE 15:40:23 81° ENE 15:43:59 10° N
CRYOSAT 2 4.3 15:37:06 10° N 15:42:01 77° E 15:46:54 10° S
ISS -1.5 15:41:05 10° NW 15:43:05 15° N 15:45:06 10° NNE
Cosmos 1805 Rocket 4.2 15:39:23 10° NNW 15:43:46 63° W 15:48:08 10° S
Cosmos 773 Rocket 4.1 15:40:13 10° S 15:45:23 61° ESE 15:50:37 10° NNE
Cosmos 1328 Rocket 3.9 15:41:47 10° SSE 15:45:52 44° E 15:50:00 10° NNE
Radarsat Rocket 4.2 15:43:51 10° SSE 15:49:54 88° WSW 15:56:42 10° NNW
Cosmos 482 Debris 4.1 15:49:05 10° NNW 15:50:27 18° NNE 15:50:58 17° NE
Cosmos 1666 Rocket 3.5 15:46:36 10° N 15:51:02 72° E 15:55:27 10° SSE
CREW DRAGON DEMO-1 DEB 4.0 15:49:41 10° WNW 15:52:32 43° SW 15:55:22 10° SSE
USA 215 3.8 15:56:20 12° ENE 16:02:04 43° SE 16:08:12 10° SSW
H-2A R/B 3.5 15:58:01 10° S 16:02:10 51° W 16:06:13 10° NNW
Okean-O 4.0 15:59:24 10° ESE 16:02:22 18° ENE 16:05:20 10° NNE
Okean O Rocket 1.5 15:58:04 10° SSE 16:02:25 84° ENE 16:06:49 10° NNW
Cosmos 1939 Rocket 3.5 16:00:15 10° SE 16:03:41 31° ENE 16:07:10 10° N
CZ-4 R/B 3.1 16:05:02 14° NE 16:05:02 14° NE 16:06:23 10° NNE
CZ-2C R/B 4.0 16:00:40 10° ESE 16:04:22 21° ENE 16:07:58 10° NNE
H-2A R/B 2.8 16:02:16 10° N 16:06:24 54° WNW 16:10:36 10° SSW
CORIOLIS 4.2 16:03:15 10° SSE 16:08:40 89° ENE 16:14:08 10° NNW
CZ-4B R/B 1.2 16:06:25 10° NNE 16:09:30 59° E 16:12:37 10° S
Cosmos 2218 Rocket 3.9 16:05:44 10° N 16:11:53 76° E 16:18:03 10° SSE
Cosmos 1812 3.9 16:11:23 10° SE 16:14:20 22° E 16:14:26 22° E
Cosmos 2366 rocket 3.9 16:08:10 10° N 16:14:21 77° E 16:20:29 10° SSE
Meteor 1-20 Rocket 4.4 16:09:05 10° NNW 16:14:58 83° W 16:20:45 10° S
BREEZE-M DEB (TANK) 4.3 16:03:43 10° SW 16:15:49 57° SSE 16:18:25 22° ENE
Cosmos 1633 Rocket 3.3 16:11:49 10° NNW 16:16:11 74° W 16:20:30 10° S
Meteor 1-26 Rocket 4.3 16:10:35 10° S 16:16:35 84° E 16:22:38 10° N
Cosmos 489 Rocket 4.4 16:12:49 10° SSW 16:19:00 78° ESE 16:25:15 10° NNE
NOAA 11 4.1 16:15:14 10° SSE 16:20:40 86° ENE 16:26:08 10° NNW
SKYMED 2 3.7 16:16:29 10° NNE 16:20:43 49° E 16:24:55 10° S
CZ-4B R/B 3.7 16:15:29 10° S 16:20:44 60° WSW 16:25:59 10° NNW
Cosmos 2237 Rocket 4.5 16:16:57 10° W 16:20:50 19° NW 16:24:45 10° N
SAR-Lupe-4 3.9 16:20:01 22° NE 16:21:57 41° E 16:25:21 10° S
USA 81 4.2 16:17:54 10° N 16:23:12 80° W 16:28:28 10° S
Cosmos 1603 3.9 16:18:34 10° S 16:23:59 51° ESE 16:28:03 18° NE
Meteor 1-14 Rocket 4.3 16:18:12 10° N 16:24:07 62° ENE 16:30:02 10° SSE
Cosmos 1602 3.6 16:20:15 10° N 16:24:10 78° E 16:28:02 10° S
H-2A R/B 3.1 16:25:53 23° ENE 16:25:53 23° ENE 16:29:44 10° NNE
Meteor 1-4 Rocket 2.6 16:22:41 10° SSW 16:26:17 75° W 16:29:51 10° N
SMAP 4.2 16:22:27 10° S 16:26:55 47° W 16:31:26 10° NNW
MOS 1 Rocket 4.3 16:23:53 17° NE 16:27:18 32° E 16:32:03 10° SSE
Cosmos 1943 3.4 16:23:08 10° S 16:28:31 49° ESE 16:32:09 20° NE
IRS-1C Rocket 4.1 16:23:44 10° SSE 16:28:51 55° ENE 16:34:01 10° N
CZ-2D R/B 3.5 16:26:16 10° SE 16:29:53 43° ENE 16:33:32 10° N
USA 281 3.6 16:24:46 10° ESE 16:30:43 39° NE 16:36:41 10° N
Cosmos 1782 2.9 16:27:41 10° SSW 16:31:37 76° W 16:35:37 10° N
Cosmos 2369 Rocket 2.2 16:27:38 10° NNW 16:33:17 61° ENE 16:38:51 10° SE
USA 267 4.0 16:31:09 23° ENE 16:34:02 33° NNE 16:39:43 10° NW
SL-24 DEB 4.2 16:31:38 10° N 16:36:22 66° E 16:41:01 10° S
Cosmos 1943 Rocket 2.3 16:33:05 10° NNW 16:38:40 76° WSW 16:44:14 10° SSE
SAR-Lupe-1 3.9 16:37:24 31° NNE 16:38:57 67° ESE 16:42:31 10° S
Cosmos 1680 Rocket 4.0 16:38:59 10° SSE 16:43:48 38° ESE 16:44:38 35° E
Cosmos 1238 Rocket 4.1 16:45:28 30° ESE 16:45:28 30° ESE 16:48:33 10° SSE
BREEZE-M DEB (TANK) 4.3 16:44:28 10° NW 16:45:13 15° NNW 16:45:13 15° NNW
Meteor 1-10 Rocket 4.3 16:41:35 10° SSE 16:47:01 51° E 16:50:28 22° NNE
YAOGAN 1 3.8 16:51:54 27° NNE 16:51:54 27° NNE 16:54:04 10° N
SL-24 R/B 3.7 16:50:07 26° N 16:52:09 81° WNW 16:55:47 10° SSW
X-37B 1.2 16:50:09 10° W 16:52:59 50° NW 16:52:59 50° NW
Lacrosse 5 rocket 3.4 16:52:58 10° WNW 16:54:55 14° NNW 16:55:50 13° N
Cosmos 1689 Rocket 3.1 16:57:47 40° SSW 16:57:47 40° SSW 16:59:49 10° SSW
Cosmos 1934 Rocket 4.2 16:54:30 10° N 17:00:33 43° ENE 17:06:30 10° SSE
ERS-2 3.7 16:57:22 11° N 17:00:37 34° WNW 17:03:56 10° SW
Nadezhda 3 Rocket 3.9 16:55:58 10° S 17:02:18 82° E 17:08:42 10° N
Cosmos 2112 Rocket 4.2 16:58:55 10° S 17:03:49 49° ESE 17:03:49 49° ESE
Cosmos 44 Rocket 4.0 16:59:17 10° NNW 17:03:28 40° NNE 17:03:28 40° NNE
CENTAUR R/B 2.6 17:00:31 10° S 17:05:55 47° ESE 17:06:27 45° E
COSMO-SKYMED 1 3.5 17:04:49 12° N 17:08:43 47° WNW 17:12:53 10° SW
Cosmos 2228 Rocket 3.1 17:04:58 10° S 17:09:31 80° W 17:11:14 38° N
NOSS 3-2 (C) 3.5 17:05:01 10° S 17:10:15 48° ESE 17:10:15 48° ESE
SL-16 R/B 4.4 17:09:08 10° W 17:13:10 20° NW 17:17:14 10° N
Cosmos 1821 Rocket 4.0 17:08:20 10° N 17:14:37 86° W 17:20:58 10° S
DEBRIS 3.9 17:09:08 10° WNW 17:19:07 49° N 17:19:16 49° NNE
ISS -0.8 17:18:24 10° NNW 17:18:35 11° NNW 17:18:35 11° NNW
Cosmos 1500 4.3 17:21:24 10° NNW 17:25:03 43° W 17:28:41 10° SSW
DMSP B5D1-3 4.4 17:27:28 82° SSE 17:27:28 82° SSE 17:32:22 10° SSW
Cosmos 1656 Rocket 3.7 17:29:05 10° NNW 17:34:43 78° WSW 17:35:33 64° S
NOSS 3-2 (A) 3.5 17:30:45 10° SW 17:36:18 67° NW 17:37:25 55° N
Okean-O 3.6 17:34:15 10° S 17:38:29 45° W 17:42:45 10° NNW
CZ-4 R/B 3.6 17:41:04 19° NW 17:41:04 19° NW 17:42:23 10° NNW
CZ-2C R/B 4.0 17:39:10 10° S 17:43:59 44° W 17:48:37 10° NNW
Lacrosse 4 Rocket 3.8 17:40:44 10° SSW 17:41:33 16° SSW 17:41:33 16° SSW
USA 215 3.6 17:43:40 48° N 17:45:10 58° NW 17:51:33 10° WSW
Meteor 1-11 Rocket 3.9 17:42:27 10° NNW 17:48:14 73° W 17:54:07 10° S
USA 238 DEB 3.9 17:48:30 10° SW 17:54:59 61° NW 17:55:54 56° NNW
USA 238 3.9 17:48:35 10° SW 17:55:05 62° NW 17:55:58 57° NNW
H-2A R/B 3.4 18:06:31 34° NW 18:06:31 34° NW 18:09:48 10° NNW
USA 281 4.2 18:08:58 10° S 18:15:06 42° WSW 18:21:18 10° NW
USA 267 3.9 18:18:31 48° NW 18:18:31 48° NW 18:23:04 10° NW
CENTAUR R/B 4.4 18:51:13 10° WSW 18:53:41 23° W 18:53:41 23° W
